Flag for U.S.A. Weather past 2 weeks in Overland Park, Kansas, U.S.A.

Now
68 °F

Fog.


Feels Like: 68 °F
Forecast: 67 / 83 °F
Wind: 7 mph from East

Location: Johnson County Executive Airport

Current Time: Aug 30, 2015 at 9:12:51 AM

Latest Report: Aug 30, 2015 at 9:00 AM


Visibility: 1 mi

Pressure: 30.04 "Hg

Humidity: 100%

Dew point: 68 °F

Location of Overland ParkLocation

Historic Weather in Overland Park — Graph

°F

Overland Park temperature yesterday

Maximum temperature yesterday: 76 °F (at 2:53 PM)
Minimum temperature yesterday: 68 °F (at 6:57 AM)
Average temperature yesterday: 71 °F

Past Weeks' High & Low Weather Summary

 TemperatureHumidityPressure
High90 °F (Aug 17, 4:53 PM)100% (Aug 30, 5:53 AM)30.19 "Hg (Aug 30, 5:53 AM)
Low51 °F (Aug 24, 6:53 AM)37% (Aug 24, 1:53 PM)29.63 "Hg (Aug 18, 5:53 PM)
Average71 °F74%29.98 "Hg
* Reported Aug 15 7:53 AM — Aug 30 7:53 AM, Overland Park, Weather by CustomWeather, © 2015

Note: Actual official high and low records may vary slightly from our data, if they occured in-between our weather recording intervals... More about our weather records

Advertising

Overland Park weather history for previous 24 hours

 ConditionsComfort  
Time TempWeatherWind HumidityBarometerVisibility
7:53 AM
Sun, Aug 30
67 °FFog.8 mph100%30.00 "Hg0 mi
6:53 AM67 °FFog.6 mph100%29.98 "Hg0 mi
5:53 AM67 °FFog.6 mph100%29.97 "Hg1 mi
4:53 AM67 °FFog.5 mph97%29.98 "Hg6 mi
3:53 AM67 °FLow clouds.6 mph97%29.98 "Hg10 mi
2:53 AM67 °FPassing clouds.6 mph93%29.98 "Hg10 mi
1:53 AM67 °FPassing clouds.5 mph93%29.99 "Hg10 mi
12:53 AM68 °FPassing clouds.5 mph93%30.01 "Hg10 mi
11:53 PM
Sat, Aug 29
69 °FPassing clouds.7 mph90%30.01 "Hg10 mi
10:53 PM70 °FOvercast.8 mph90%30.01 "Hg10 mi
9:53 PM71 °FOvercast.9 mph87%30.01 "Hg10 mi
8:53 PM72 °FPassing clouds.5 mph84%29.99 "Hg10 mi
7:53 PM73 °FOvercast.7 mph84%29.97 "Hg10 mi
6:53 PM75 °FOvercast.5 mph74%29.97 "Hg10 mi
5:53 PM75 °FOvercast.5 mph76%29.97 "Hg10 mi
4:53 PM75 °FOvercast.3 mph76%29.97 "Hg10 mi
3:53 PM76 °FOvercast.5 mph72%29.97 "Hg9 mi
2:53 PM76 °FMore clouds than sun.5 mph72%29.98 "Hg9 mi
1:53 PM74 °FMore clouds than sun.7 mph76%29.99 "Hg8 mi
1:02 PM74 °FPartly sunny.6 mph79%30.02 "Hg8 mi
12:53 PM74 °FMostly cloudy.8 mph79%29.99 "Hg8 mi
11:53 AM71 °FOvercast.3 mph84%30.00 "Hg9 mi
10:53 AM69 °FLow clouds.No wind90%29.99 "Hg8 mi
9:53 AM69 °FLow clouds.8 mph90%29.98 "Hg7 mi
Weather by CustomWeather, © 2015

See weather overviewHow to use our weather pages